Location: ??
(35.4032°N, 139.3073°E)
Time: 03:11:04
(UTC+00:00)

Cosmos 2278 Rocket - Visible Passes

Search period start: 19 July 2024 00:00
Search period end: 29 July 2024 00:00
Orbit: 841 x 844 km, 71.0° (Epoch: 18 July)

Date Brightness Start Highest point End Pass type
(mag) Time Alt. Az. Time Alt. Az. Time Alt. Az.
19 Jul 2.1 12:00:19 30° S 12:03:10 70° ESE 12:08:47 10° NNE visible
19 Jul 4.8 13:44:28 10° W 13:47:46 16° NW 13:51:04 10° NNW visible
20 Jul 2.1 11:43:56 16° S 11:48:25 66° ESE 11:54:02 10° NNE visible
20 Jul 4.7 13:29:30 10° W 13:32:59 16° NW 13:36:27 10° NNW visible
21 Jul 2.1 11:28:06 10° S 11:33:40 63° ESE 11:39:16 10° NNE visible
21 Jul 4.7 13:14:34 10° W 13:18:11 17° NW 13:21:49 10° NNW visible
22 Jul 2.2 11:13:24 10° S 11:18:56 60° ESE 11:24:29 10° NNE visible
22 Jul 4.7 12:59:38 10° W 13:03:24 18° NW 13:07:10 10° NNW visible
23 Jul 2.3 10:58:41 10° S 11:04:11 56° ESE 11:09:43 10° NNE visible
23 Jul 4.7 12:44:43 10° W 12:48:36 19° NW 12:52:32 10° NNW visible
24 Jul 2.3 10:43:59 10° S 10:49:27 53° ESE 10:54:57 10° NNE visible
24 Jul 4.7 12:29:48 10° WSW 12:33:49 20° WNW 12:37:52 10° N visible
25 Jul 2.4 10:29:17 10° S 10:34:42 51° ESE 10:40:10 10° NNE visible
25 Jul 4.7 12:14:53 10° WSW 12:19:02 21° WNW 12:23:13 10° N visible
26 Jul 2.4 10:14:34 10° S 10:19:58 48° ESE 10:25:23 10° NNE visible
26 Jul 4.7 12:00:00 10° WSW 12:04:16 22° WNW 12:08:33 10° N visible
26 Jul 5.5 19:13:27 10° NNE 19:16:26 14° NE 19:19:24 10° E visible
27 Jul 4.7 11:45:06 10° WSW 11:49:29 23° WNW 11:53:52 10° N visible
27 Jul 5.5 18:58:52 10° NNE 19:01:38 14° NE 19:04:24 10° E visible
28 Jul 4.6 11:30:14 10° WSW 11:34:42 24° WNW 11:39:11 10° N visible
28 Jul 5.6 18:44:19 10° NNE 18:46:51 13° NE 18:49:23 10° E visible
